COSMOS 2251 DEB, 34026

Orbit data source: Space-Track

COSMOS 2251 DEB, 34026 is space debris in LEO originally from a launch on Wed, 16 Jun 1993 UTC launched from the Plesetsk Missile And Space Complex (PKMTR). The debris from Iridium 33, an American commercial communications satellite, has been tracked extensively since its accidental collision with the defunct Russian satellite Cosmos 2251 in 2009. This event, occurring at high speed in low Earth orbit (LEO), generated thousands of pieces of space debris, significantly increasing the risk of further collisions. The Iridium 33 debris cloud has impacted space traffic management and orbital debris mitigation strategies, making it a subject of ongoing study in space situational awareness.

Loading next visibility...
Identifier
34026, 1993-036HM
Orbit
LEO
Country
Flag of CISCIS
Related business
Manufacturer
Unknown
Mission
Spacecraft
Bus & Motor
Unknown
Mass
Unknown
Launch date (UTC)
1993-06-16 (33 years ago)
Launch vehicle
Unknown
Launch site
Plesetsk Missile And Space Complex (PKMTR)
Object type
Payload
Rocket body
Debris
Shape & HBR
Unknown shape, 0.1 m
Radar Cross Section
Small (<0.1 m²)

Expand to show TLE details & history
Last TLE update: 13 hours ago

TLE from 13 hours ago
0 COSMOS 2251 DEB
1 34026U 93036HM  26035.69167248  .00001214  00000-0  10001-2 0  9997
2 34026  73.7639 247.5680 0348590 108.9219 331.9221 13.65419248842685
Epoch: 2026-02-04T16:36Z
TLE epoch observation values (Epoch: 2026-02-04T16:36:00.502Z)
Latitude
70.50009°
Longitude
-81.40757°
Altitude
802.498 km
Speed
7.572 km/s
True Right ascension
20h 09m 47s
True Declination
70° 23' 32"
Sunlit
Object was in daylight at epoch
Visualization orbit readout
Latitude
Unknown
Longitude
Unknown
Altitude
Unknown
Speed
Unknown
Apparent Right ascension
Unknown
Apparent Declination
Unknown
Sunlit
N/A
Visualization observer readout
Local Sidereal Time
07:13:35
Azimuth
Unknown
Elevation
Unknown
Doppler factor
Unknown
Orbital elements
Apogee altitude
1,271.459 km
Perigee altitude
756.109 km
Semi-major axis
7,391.921 km
Eccentricity
0.03486
Inclination
73.7639°
RAAN
247.568°
Arg. of periapsis
108.9219°
True anomaly
329.96732°
Mean anomaly
331.9221°
Eccentric anomaly
330.95235°
Mean motion
3.41513 °/min
Orbital period
105.41 mins
BSTAR
0.0010001
Loading maneuver chart data...
Computing Atmospheric mass density...

Documentation

Showing up to 5 results
|